Location: Chaumontel
(49.1247°N, 2.4324°E)
Time: 18:46:19
(UTC+00:00)

Envisat - Pass Details

Date: 15 May 2026
Orbit: 761 x 763 km, 98.4° (Epoch: 10 June)

Event Time Altitude Azimuth Distance (km) Brightness Sun altitude
Rises 02:12:09 0° 17° (NNE) 3,237 7.7 -14.7°
Reaches altitude 10° 02:14:32 10° 23° (NNE) 2,306 6.8 -14.5°
Maximum altitude 02:19:30 54° 100° (E) 925 3.6 -14.0°
Enters shadow 02:24:14 11° 177° (S) 2,212 4.9 -13.6°
